Location: Strada George Coșbuc
(47.6577°N, 23.5639°E)
Time: 01:30:05
(UTC+03:00)

ISS - Pass Details

Date: 25 September 2017
Orbit: 401 x 407 km, 51.6° (Epoch: 23 September)

Event Time Altitude Azimuth Distance (km) Brightness Sun altitude
Rises 20:42:50 0° 208° (SSW) 2,307 0.2 -15.1°
Reaches altitude 10° 20:45:11 10° 192° (SSW) 1,453 -1.1 -15.5°
Enters shadow 20:46:46 19° 166° (SSE) 1,040 -2.1 -15.7°
